OSCAR 7 (AO-7) 1 07530U 74089B 26035.28124144 -.00000050 00000+0 -25436-4 0 9995 2 07530 101.9970 47.1129 0012288 26.0559 42.8268 12.53695606343863 PHASE 3B (AO-10) 1 14129U 83058B 26032.88008791 -.00000076 00000+0 00000+0 0 9997 2 14129 25.9660 242.3970 6057197 78.0086 340.2671 2.05871360292703 UOSAT 2 (UO-11) 1 14781U 84021B 26035.17292284 .00002166 00000+0 22818-3 0 9995 2 14781 97.7892 2.4024 0006035 263.3717 96.6814 14.90374650237319 LUSAT (LO-19) 1 20442U 90005G 26035.27056222 .00000183 00000+0 82174-4 0 9995 2 20442 98.8950 53.3505 0010736 232.7679 127.2525 14.34073279883347 EYESAT A (AO-27) 1 22825U 93061C 26035.14276677 .00000140 00000+0 70292-4 0 9992 2 22825 98.7054 102.5152 0009284 127.0285 233.1748 14.30901115687978 ITAMSAT (IO-26) 1 22826U 93061D 26035.16165029 .00000165 00000+0 79262-4 0 9996 2 22826 98.7002 102.4384 0009950 112.4744 247.7493 14.31324255688284 RADIO ROSTO (RS15) 1 23439U 94085A 26035.34843245 -.00000110 00000+0 -19118-2 0 9991 2 23439 64.8156 158.0532 0151486 28.3785 332.5287 11.27583346280926 JAS-2 (FO-29) 1 24278U 96046B 26035.22916246 -.00000003 00000+0 29638-4 0 9991 2 24278 98.5425 262.1680 0350876 81.4246 282.6480 13.53266457455182 TECHSAT 1B (GO-32) 1 25397U 98043D 26035.23352311 .00000104 00000+0 65047-4 0 9996 2 25397 98.9981 24.6976 0000631 186.9028 173.2142 14.24396132432408 ISS (ZARYA) 1 25544U 98067A 26035.01771291 .00010297 00000+0 19874-3 0 9994 2 25544 51.6311 238.8105 0011107 61.9619 298.2491 15.48378125551110 PCSAT (NO-44) 1 26931U 01043C 26035.24085746 .00000189 00000+0 10169-3 0 9998 2 26931 67.0488 228.1177 0007050 266.5609 93.4686 14.31892110271411 SAUDISAT 1C (SO-50) 1 27607U 02058C 26034.82620247 .00002026 00000+0 25731-3 0 9993 2 27607 64.5527 181.4894 0074249 286.8165 72.4806 14.82641388244686 CUTE-1 (CO-55) 1 27844U 03031E 26034.98326989 .00000393 00000+0 18920-3 0 9998 2 27844 98.6772 45.2037 0009075 206.7176 153.3536 14.24236363172715 CUBESAT XI-IV (CO-57) 1 27848U 03031J 26034.97578610 .00000324 00000+0 16177-3 0 9997 2 27848 98.6802 45.0160 0008672 226.1677 133.8785 14.23535876172429 MOZHAETS 4 (RS22) 1 27939U 03042A 26035.31563749 .00001300 00000+0 20981-3 0 9999 2 27939 98.3392 215.9561 0010924 335.7396 146.0826 14.73152720195988 CUBESAT XI-V 1 28895U 05043F 26035.14140424 .00002317 00000+0 37568-3 0 9994 2 28895 98.2773 188.1479 0013155 267.2439 92.7262 14.72162245 82176 CUTE-1.7+APD II (CO-65) 1 32785U 08021C 26035.20699915 .00007618 00000+0 50040-3 0 9996 2 32785 97.8161 14.1057 0010925 115.6381 244.5976 15.07866208965144 SEEDS II (CO-66) 1 32791U 08021J 26034.48164572 .00019703 00000+0 73306-3 0 9996 2 32791 97.7483 26.5409 0005531 74.4728 285.7120 15.27531158966840 YUBILEINY (RS30) 1 32953U 08025A 26035.22878255 .00000020 00000+0 71070-4 0 9992 2 32953 82.4995 78.1506 0018461 239.5406 120.3851 12.43174583803174 KKS-1 (KISEKI) 1 33499U 09002H 26035.19584503 .00002353 00000+0 29847-3 0 9995 2 33499 98.1192 315.5854 0008233 11.9746 348.1661 14.82689037916480 SWISSCUBE 1 35932U 09051B 26035.28888131 .00001585 00000+0 32475-3 0 9994 2 35932 98.4132 300.8347 0005533 268.2904 91.7663 14.62159005869731 BEESAT-1 1 35933U 09051C 26035.29967547 .00001332 00000+0 27886-3 0 9995 2 35933 98.4060 300.7526 0004118 286.4485 73.6262 14.61448160869774 ITUPSAT1 1 35935U 09051E 26035.31212924 .00001226 00000+0 26448-3 0 9997 2 35935 98.4150 300.0929 0006396 296.8936 63.1609 14.60189859869340 XIWANG-1 (HOPE-1) 1 36122U 09072B 26035.32126472 -.00000063 00000+0 -50301-4 0 9998 2 36122 100.3859 351.3808 0007440 172.8961 187.2259 13.16433860775524 O/OREOS (USA 219) 1 37224U 10062C 26035.10010296 .00003707 00000+0 36086-3 0 9994 2 37224 71.9716 21.6565 0016530 313.7456 46.2345 14.93058513 96772 JUGNU 1 37839U 11058B 26035.18517245 .00000508 00000+0 12586-3 0 9991 2 37839 19.9621 36.4340 0018739 48.1569 32.2845 14.13725490740181 SRMSAT 1 37841U 11058D 26034.70280699 .00000463 00000+0 10722-3 0 9991 2 37841 19.9708 147.4047 0011631 174.9069 332.8041 14.11534324738933 STRAND-1 1 39090U 13009E 26035.28319304 .00000447 00000+0 16499-3 0 9996 2 39090 98.3854 218.8110 0007579 268.1783 91.8536 14.37063364677979 ZACUBE-1 (TSHEPISOSAT) 1 39417U 13066B 26035.11191732 .00008641 00000+0 68931-3 0 9999 2 39417 97.8168 356.7789 0041137 335.9522 23.9779 14.99884796660773 GOMX-1 1 39430U 13066Q 26035.31289793 .00001854 00000+0 28575-3 0 9990 2 39430 97.6573 244.0970 0130353 143.7024 217.3113 14.68944138650401 CUBEBUG-2 (LO-74) 1 39440U 13066AA 26035.31566821 .00005059 00000+0 48062-3 0 9995 2 39440 97.8773 343.9596 0060588 107.2536 253.5326 14.92546667657164 FUNCUBE-1 (AO-73) 1 39444U 13066AE 26035.18871121 .00012606 00000+0 82803-3 0 9993 2 39444 97.8138 4.1893 0036322 297.6255 62.1286 15.07217658659613 UWE-3 1 39446U 13066AG 26034.41607620 .00007104 00000+0 62611-3 0 9993 2 39446 97.8548 349.8405 0051786 47.1426 313.4128 14.95717049657572 UNISAT-6 1 40012U 14033C 26035.30827713 .00005570 00000+0 61042-3 0 9997 2 40012 97.7667 190.5814 0046473 145.3883 215.0374 14.87346979626403 DUCHIFAT-1 1 40021U 14033M 26035.08105535 .00051429 00000+0 10541-2 0 9994 2 40021 98.0701 77.6488 0005986 182.5830 177.5388 15.45889864635077 QB50P1 1 40025U 14033R 26035.24864139 .00011035 00000+0 58170-3 0 9998 2 40025 98.0993 37.2980 0008027 332.7476 27.3333 15.15747295632872 LILACSAT-2 1 40908U 15049K 26035.34005689 .00018508 00000+0 37094-3 0 9998 2 40908 97.4852 67.4308 0008237 28.0235 332.1457 15.46740973575183 FOX-1A (AO-85) 1 40967U 15058D 26035.17216085 .00003545 00000+0 32663-3 0 9990 2 40967 64.7777 332.0803 0130516 109.1898 252.3392 14.90081162 93748 CAS-2T & KS-1Q 1 41847U 16066G 26035.17835205 .00002156 00000+0 31102-3 0 9993 2 41847 98.3950 112.3882 0343284 172.8452 187.7826 14.44342287485597 RADFXSAT (FOX-1B) 1 43017U 17073E 26035.14134106 .00009516 00000+0 43437-3 0 9993 2 43017 97.4902 265.1546 0159281 67.3119 294.4862 15.10105010445293 DIWATA-2B 1 43678U 18084H 26035.29876274 .00001510 00000+0 12729-3 0 9990 2 43678 98.1069 225.9627 0008172 231.5235 128.5255 14.99792358396299 ES'HAIL 2 1 43700U 18090A 26035.20601146 .00000000 00000+0 00000+0 0 9996 2 43700 0.0147 118.5802 0002377 240.3820 235.3563 1.00269623 26342 FOX-1CLIFF (AO-95) 1 43770U 18099N 26035.15575996 .00013894 00000+0 58419-3 0 9995 2 43770 97.4583 96.0741 0010600 96.2891 263.9553 15.23474362392945 ITASAT 1 43786U 18099AE 26035.14260477 .00008917 00000+0 45204-3 0 9994 2 43786 97.4237 89.3522 0014608 96.2754 264.0144 15.17093426392725 JY1SAT (JO-97) 1 43803U 18099AX 26035.12717976 .00019869 00000+0 70688-3 0 9995 2 43803 97.4326 97.8232 0006704 34.3465 325.8207 15.28989632393267 UWE-4 1 43880U 18111E 26035.25077445 .00032448 00000+0 87380-3 0 9994 2 43880 97.5871 318.3875 0012017 83.5151 276.7461 15.37710953390298 TIANYAN 01 1 44881U 19093C 26035.29370089 .00001531 00000+0 17993-3 0 9992 2 44881 97.7679 110.7125 0014019 158.7306 201.4495 14.86259903331676 RS-44 & BREEZE-KM R/B 1 44909U 19096E 26035.33383173 .00000012 00000+0 -34412-5 0 9990 2 44909 82.5175 67.9907 0218660 95.0033 267.6067 12.79746799285355 SALSAT 1 46495U 20068K 26034.48477916 .00010160 00000+0 38041-3 0 9991 2 46495 97.8823 29.6576 0011930 57.5986 302.6405 15.27442654294933 XW-3 (CAS-9) 1 50466U 21131B 26035.31865624 .00000515 00000+0 17321-3 0 9997 2 50466 98.5002 128.4620 0005012 129.5264 230.6369 14.41203805215978 GREENCUBE (IO-117) 1 53109U 22080E 26034.80386942 -.00000003 00000+0 00000+0 0 9997 2 53109 70.1641 344.6280 0009168 317.2646 42.7300 6.42583175 83490 UMKA 1 (RS40S) 1 57172U 23091G 26035.24667105 .00008277 00000+0 39717-3 0 9997 2 57172 97.5247 94.4877 0012381 218.3364 141.6991 15.19070462143812 CUBESX-HSE 3 (RS42S) 1 57178U 23091N 26035.29749053 .00015765 00000+0 58651-3 0 9999 2 57178 97.5278 99.4428 0011312 196.4418 163.6455 15.27532943144117 MONITOR-3 (RS58S) 1 57180U 23091Q 26035.25493914 .00013419 00000+0 54140-3 0 9993 2 57180 97.5271 97.8886 0012003 202.3878 157.6837 15.24860416144010 MONITOR-4 (RS57S) 1 57182U 23091S 26035.30748727 .00013600 00000+0 54739-3 0 9992 2 57182 97.5266 97.9045 0011992 202.5414 157.5298 15.24939877144027 MONITOR-2 (RS39S) 1 57184U 23091U 26035.31185167 .00007062 00000+0 35534-3 0 9995 2 57184 97.5271 94.4544 0010849 208.5874 151.4766 15.17481570143797 SVYATOBOR 1 (RS60S) 1 57187U 23091X 26035.28909713 .00010853 00000+0 44952-3 0 9991 2 57187 97.5278 98.4923 0009641 191.8249 168.2763 15.24055586144055 VIZARD-METEO (RS38S) 1 57189U 23091Z 26035.32325444 .00018658 00000+0 61545-3 0 9999 2 57189 97.5266 102.4847 0008097 176.4805 183.6494 15.31453393144324 NANOZOND 1 (RS49S) 1 57190U 23091AA 26035.31751377 .00119984 00000+0 12695-2 0 9993 2 57190 97.5167 113.1792 0003505 171.9010 188.2306 15.63759232145040 POLYTECH-UNIVERSE 3 (R*) 1 57191U 23091AB 26035.28985247 .00006789 00000+0 33959-3 0 9990 2 57191 97.5247 93.9414 0014894 228.0235 131.9731 15.17658134143786 UTMN 2 (RS27S) 1 57203U 23091AP 26035.25982362 .00016573 00000+0 60013-3 0 9999 2 57203 97.5269 100.8740 0008677 181.8586 178.2623 15.28437234144212 KUZGTU 1 (RS47S) 1 57217U 23091AV 26035.24948429 .00015126 00000+0 58090-3 0 9994 2 57217 97.5252 98.5791 0011385 199.8828 160.1968 15.26487552144078 SONATE-2 1 59112U 24043Q 26035.28255735 .00034491 00000+0 64215-3 0 9995 2 59112 97.5359 178.6850 0008253 334.3194 25.7646 15.48747079107255 MESAT1 1 60209U 24125G 26035.10901925 .00040473 00000+0 70433-3 0 9991 2 60209 97.2482 250.6656 0013540 355.4687 4.6440 15.50570937 88862 OOV-CUBE (TUBSAT-30) 1 60240U 24128F 26035.27899332 .00003677 00000+0 28553-3 0 9996 2 60240 61.9972 328.7731 0056743 105.3266 255.4106 15.02003378 86148 COLIBRI-S (RS67S) 1 61746U 24199M 26035.27799899 .00022576 00000+0 53262-3 0 9997 2 61746 97.3206 268.3022 0011244 49.2468 310.9753 15.41831845116894 HORS 3 (RS81S) 1 61753U 24199U 26035.27347775 .00031191 00000+0 63727-3 0 9997 2 61753 97.3174 269.1869 0009673 54.5467 305.6684 15.46056857116964 HORS 4 (RS82S) 1 61754U 24199V 26035.26771126 .00037398 00000+0 70337-3 0 9998 2 61754 97.3151 269.7584 0009540 53.3449 306.8677 15.48424481117005 HORIZON (RS59S) 1 61757U 24199Y 26035.32640297 .00095990 00000+0 10742-2 0 9997 2 61757 97.3141 272.8372 0008029 39.6735 320.5110 15.62368145117200 ARCTICSAT 1 (RS74S) 1 61762U 24199AD 26035.26417663 .00077927 00000+0 97286-3 0 9994 2 61762 97.3155 272.4678 0008134 37.0122 323.1695 15.59571720117179 SIT-2086 1 61764U 24199AF 26035.27428116 .00023359 00000+0 48252-3 0 9991 2 61764 97.3170 269.9449 0008867 40.0783 320.1119 15.45801020113858 MORDOVIA-IOT (RS50S) 1 61765U 24199AG 26030.00009282 .01088222 64376-3 17131-2 0 9999 2 61765 97.2909 271.5843 0005153 76.8106 283.3749 16.04044133113518 RUZAEVKA 390 (RS44S) 1 61766U 24199AH 26033.17970470 .00223778 00000+0 13287-2 0 9991 2 61766 97.3061 272.9898 0006220 49.8562 310.3248 15.77365322113886 HYPERVIEW 1G (RS66S) 1 61772U 24199AP 26035.30900193 .00057765 00000+0 89978-3 0 9992 2 61772 97.3145 270.6100 0011085 50.2229 309.9999 15.53629215113917 ALTAIR (RS65S) 1 61779U 24199AW 26035.31535016 .00013539 00000+0 41068-3 0 9997 2 61779 97.3221 265.6339 0015423 65.8639 294.4215 15.34115385116722 ASRTU-1 (AO-123) 1 61781U 24199AY 26035.27610491 .00011181 00000+0 34817-3 0 9991 2 61781 97.3199 265.1768 0015939 67.0813 293.2110 15.33320990113547 TUSUR GO (RS78S) 1 61782U 24199AZ 26035.27871531 .00098209 00000+0 11052-2 0 9997 2 61782 97.3098 271.8111 0009522 49.3484 310.8601 15.62201674113999 SAMSAT-IONOSPHERE (RS7*) 1 61784U 24199BB 26035.31868887 .00038285 00000+0 75881-3 0 9993 2 61784 97.3168 268.9807 0012660 54.8836 305.3598 15.46864605116951 RTU MIREA 1 (RS51S) 1 61785U 24199BC 26035.28936087 .00041040 00000+0 77028-3 0 9996 2 61785 97.3163 269.3104 0012239 53.0213 307.2156 15.48431165113821 HADES-R 1 62690U 25009CK 26032.99082620 .05664363 23962-5 28116-2 0 9998 2 62690 97.3536 123.7794 0009922 302.1245 57.9081 16.20799086 58843 TEVEL2-4 1 63213U 25052D 26035.21228856 .00020564 00000+0 72140-3 0 9992 2 63213 97.4068 291.7488 0001755 169.7742 190.3534 15.29459758 49759 TEVEL2-5 1 63214U 25052E 26035.15537626 .00020473 00000+0 72055-3 0 9998 2 63214 97.4064 291.6712 0001780 170.1812 189.9463 15.29354876 49746 TEVEL2-6 1 63215U 25052F 26035.22970524 .00019822 00000+0 69865-3 0 9996 2 63215 97.4068 291.7319 0001846 172.6713 187.4555 15.29313492 49750 TEVEL2-1 1 63217U 25052H 26034.23749943 .00019634 00000+0 70117-3 0 9990 2 63217 97.4049 290.5088 0001218 201.0424 159.0766 15.28887177 49596 TEVEL2-3 1 63218U 25052J 26035.21751486 .00019352 00000+0 68957-3 0 9991 2 63218 97.4047 291.4927 0001319 198.2307 161.8886 15.28961990 49743 TEVEL2-2 1 63219U 25052K 26035.21991690 .00019568 00000+0 69781-3 0 9990 2 63219 97.4046 291.4871 0001402 200.7780 159.3403 15.28934532 49747 TEVEL2-9 1 63237U 25052AD 26035.23740789 .00019595 00000+0 73380-3 0 9993 2 63237 97.4108 291.1300 0004628 250.5459 109.5280 15.27315340 49704 TEVEL2-7 1 63238U 25052AE 26035.19174496 .00019699 00000+0 74200-3 0 9992 2 63238 97.4106 291.0465 0004755 250.8268 109.2457 15.27121898 49690 TEVEL2-8 1 63239U 25052AF 26035.26378722 .00019508 00000+0 73533-3 0 9996 2 63239 97.4105 291.0999 0004668 251.9869 108.0861 15.27099732 49703 HADES-ICM 1 63492U 25052BN 26035.24427975 .00097956 00000+0 18108-2 0 9999 2 63492 97.4016 294.6879 0003576 220.7653 139.3331 15.48699348 49951 INNOSAT 16 (RS92S7) 1 64878U 25155C 26035.29391154 .00008172 00000+0 34380-3 0 9999 2 64878 97.4412 3.1460 0008938 299.6158 60.4188 15.23614355 60428 GEOSCAN 6 (RS92S6) 1 64879U 25155D 26035.24020678 .00014069 00000+0 53233-3 0 9995 2 64879 97.4413 3.6934 0005940 296.0523 64.0104 15.27039714 60453 GEOSCAN 1 (RS92S1) 1 64880U 25155E 26035.28455434 .00014977 00000+0 56031-3 0 9990 2 64880 97.4411 3.7923 0005847 296.7236 63.3404 15.27402296 60461 239ALFEROV (RS61S) 1 64881U 25155F 26035.27505973 .00018235 00000+0 65594-3 0 9999 2 64881 97.4418 3.9834 0005353 297.0730 62.9963 15.28654019 60476 GEOSCAN 2 (RS92S2) 1 64890U 25155Q 26035.30356611 .00015001 00000+0 55605-3 0 9996 2 64890 97.4410 3.9070 0004986 277.7587 82.3086 15.27710082 60470 GEOSCAN 5 (RS92S5) 1 64891U 25155R 26035.29256011 .00017668 00000+0 62912-3 0 9998 2 64891 97.4411 4.0853 0004296 309.5360 50.5500 15.28998158 60482 GEOSCAN 4 (RS92S4) 1 64892U 25155S 26035.28704175 .00017106 00000+0 60764-3 0 9997 2 64892 97.4413 4.0980 0004303 310.5364 49.5501 15.29085467 60481 GEOSCAN 3 (RS92S3) 1 64893U 25155T 26035.29105110 .00021243 00000+0 72899-3 0 9992 2 64893 97.4407 4.2352 0003993 316.5449 43.5477 15.30166697 60498 INNOSAT 3 (RS92S0) 1 64894U 25155U 26035.29019046 .00037666 00000+0 11398-2 0 9997 2 64894 97.4383 4.6691 0003085 331.2165 28.8907 15.34088552 60528